#timestamp,LO_Frequency,Hit,StdDev 
1627750815.8,286047000.0,N
1627750835.6,286047000.5,N
1627750855.5,286046999.9,N
1627750875.3,286047000.3,N
1627750895.1,286047000.0,N
1627750915.9,286047000.2,N
1627750935.7,286047000.0,N
1627750955.5,286046999.7,N
1627750975.4,286047002.4,N
1627750995.2,286047002.5,N
1627751015.0,286047001.3,N
1627751016.0,286047001.3,N
1627751035.8,286047004.4,Y
1627751055.6,286047001.7,P
1627751075.5,286047001.4,N
1627751095.3,286047001.6,N
1627751115.1,286047001.5,N
1627751135.9,286047001.8,Y
1627751155.7,286047000.6,P
1627751175.6,286047000.3,N
1627751195.3,286046999.9,N
1627751215.1,286046999.7,N
1627751216.0,286046999.7,N
1627751235.8,286047002.7,Y
1627751285.7,286047000.2,E
1627751295.6,286047000.5,N
1627751315.5,286047000.9,P
1627751335.3,286046999.9,N
1627751355.1,286047000.1,N
1627751375.9,286046998.2,Y
1627751395.7,286047000.7,P
1627751415.6,286047001.1,P
1627751435.4,286047001.0,P
1627751455.2,286046998.3,Y
1627751475.1,286046999.3,P
1627751476.0,286046999.3,N
1627751495.8,286046998.7,N
1627751515.7,286046999.1,N
1627751535.5,286046998.7,N
1627751555.3,286046998.4,N
1627751575.2,286046998.3,N
1627751595.0,286046998.7,N
1627751595.9,286046998.7,N
1627751615.7,286047001.2,N
1627751635.6,286046999.6,N
1627751655.4,286046996.9,Y
1627751675.3,286046996.8,P
1627751695.1,286046997.0,N
1627751696.0,286046997.0,N
1627751715.8,286046999.4,N
1627751735.7,286046999.3,N
1627751755.5,286046998.4,N
1627751775.3,286046998.6,N
1627751795.2,286046998.2,N
1627751815.0,286046998.7,N
1627751815.9,286046998.7,N
1627751835.8,286047001.1,N
1627751855.6,286046998.6,N
1627751875.4,286046998.5,N
1627751895.3,286046998.4,N
1627751915.1,286046998.8,N
1627751935.9,286047001.2,N
1627751955.7,286047000.7,N
1627751975.5,286046998.6,N
1627751995.4,286046998.3,N
1627752015.2,286046998.9,N
1627752035.0,286046996.7,N
1627752035.9,286046996.7,N
1627752055.8,286046999.6,N
1627752075.6,286046996.6,N
1627752095.5,286046999.6,N
1627752145.3,286046995.4,E
1627752155.2,286046997.8,N
1627752175.1,286047000.8,P
1627752176.0,286047000.8,N
1627752195.8,286047001.2,N
1627752215.7,286047000.7,N
1627752235.5,286047001.2,N
1627752255.3,286047001.0,N
1627752275.2,286046999.9,N
1627752295.0,286047002.7,N
1627752295.9,286047002.7,N
1627752315.8,286047000.0,N
1627752335.6,286047000.1,N
1627752355.4,286047002.1,N
1627752375.3,286047002.5,N
1627752395.1,286047001.6,N
1627752415.8,286047001.5,N
1627752435.7,286047002.4,N
1627752455.5,286047002.6,N
1627752475.3,286047002.0,N
1627752495.2,286047001.8,N
1627752515.0,286047001.4,N
1627752515.9,286047001.4,N
1627752535.8,286047003.5,Y
1627752555.6,286047004.3,P
1627752575.4,286047002.8,N
1627752595.3,286047002.5,N
1627752615.1,286047003.9,Y
1627752635.9,286047001.2,P
1627752655.7,286047000.8,N
1627752675.5,286047000.8,N
1627752695.4,286046998.2,N
1627752715.2,286046997.1,N
1627752735.1,286046997.8,N
1627752736.0,286046997.8,N
1627752755.8,286046996.6,N
1627752775.6,286046999.2,N
1627752795.5,286047001.2,N
1627752815.3,286046998.5,N
1627752835.1,286046998.8,N
1627752855.9,286046998.8,N
1627752875.7,286047001.2,N
1627752895.6,286047000.9,N
1627752915.4,286047000.7,N
1627752935.2,286047000.9,N
1627752955.1,286046998.9,N
1627752956.0,286046998.9,N
1627752975.8,286047001.1,N
1627752995.6,286046999.1,N
1627753015.5,286046998.6,N
1627753035.3,286046998.7,N
1627753055.2,286046998.7,N
1627753075.0,286046999.4,N
1627753075.9,286046999.4,N
1627753095.7,286046996.8,N
1627753115.6,286046999.6,N
1627753135.4,286046997.0,N
1627753155.3,286046999.5,N
1627753175.1,286046998.4,N
1627753195.8,286047001.2,N
1627753215.7,286046998.4,N
1627753235.5,286046999.3,N
1627753255.4,286046998.9,N
1627753275.2,286046998.3,N
1627753295.0,286047001.1,N
1627753295.9,286047001.1,N
1627753315.8,286046999.3,N
1627753335.6,286046998.7,N
1627753355.4,286047000.7,N
1627753375.3,286047000.4,N
1627753395.1,286047000.0,N
1627753415.9,286047000.2,N
1627753435.7,286047000.2,N
1627753455.5,286047000.1,N
1627753475.4,286047000.0,N
1627753495.2,286047000.5,N
1627753515.0,286047000.7,N
1627753515.9,286047000.7,N
1627753535.8,286047000.7,N
1627753555.6,286046998.7,N
1627753575.5,286047000.9,N
1627753595.3,286047000.8,N
1627753615.1,286047001.2,N
1627753635.9,286047000.2,N
1627753655.7,286047000.0,N
1627753675.5,286047000.9,N
1627753695.4,286046998.5,N
1627753715.2,286047001.2,N
1627753735.1,286047001.1,N
1627753736.0,286047001.1,N
1627753755.8,286047000.5,N
1627753775.6,286047000.3,N
1627753795.5,286046999.9,N
1627753815.3,286047001.0,N
1627753835.1,286047000.7,N
1627753855.9,286047001.0,N
1627753875.7,286047000.7,N
1627753895.6,286046998.7,N
1627753915.4,286046999.4,N
1627753935.2,286046999.3,N
1627753955.1,286046998.5,N
1627753956.0,286046998.5,N
1627753975.8,286046998.7,N
1627753995.7,286046999.4,N
1627754015.5,286046996.5,Y
1627754035.3,286046998.3,P
1627754055.2,286046998.2,N
1627754075.9,286046998.7,N
1627754095.7,286046998.7,N
1627754115.6,286046998.7,N
1627754135.4,286047001.1,N
1627754155.3,286047001.1,N
1627754175.1,286047000.5,N
1627754176.0,286047000.5,N
1627754195.8,286046999.9,N
1627754215.7,286047000.1,N
1627754235.5,286047002.8,N
1627754255.3,286047002.1,N
1627754275.2,286047002.6,N
1627754295.0,286047001.6,N
1627754295.9,286047001.6,N
1627754315.8,286047002.6,N
1627754335.6,286047001.8,N
1627754355.4,286047001.5,N
1627754375.3,286047001.4,N
1627754395.1,286047001.6,N
1627754396.0,286047001.6,N
